Regional Weather Roundup
Issued by NWS Goodland, KS

Home | Current Version | Previous Version | Text Only | Print | Product List | Glossary Off
Versions: 1 2 3 4 5 6 7 8 9 10 11 12 13 14 15 16 17 18 19 20 21 22 23 24 25 26 27 28 29 30 31 32 33 34 35 36 37 38 39 40 41 42 43 44 45 46 47 48 49 50

000
ASUS43 KGLD 031208
RWRGLD

GOODLAND FORECAST AREA HOURLY WEATHER ROUNDUP
NATIONAL WEATHER SERVICE GOODLAND KS
500 AM MST SAT DEC 03 2016

...OFFICIAL OBSERVATIONS...

CITY           SKY/WX    TMP DP  RH WIND       PRES   REMARKS
GOODLAND KS    CLOUDY    24  15  68 S8        30.12F
HILL CITY KS   CLOUDY    31  26  82 CALM      30.21F
IMPERIAL NEB   CLOUDY    28  23  81 S8        30.13F
MCCOOK NEB     CLOUDY    26  21  81 CALM      30.17F
AKRON CO       CLEAR     24  17  74 S10       30.06F WCI  14
BURLINGTON CO  CLOUDY    21  15  78 S10       30.10F WCI  10
LIMON CO       CLOUDY    15  13  91 S7        30.06F
$$

...UNOFFICIAL OBSERVATIONS...

CITY           SKY/WX    TMP DP  RH WIND       PRES   REMARKS
COLBY KS       CLOUDY    34  25  69 S7        30.17S
LENORA KS        N/A     30  32 100 MISG        N/A
NORTON KS      CLOUDY    28  21  74 E3        30.18F
SHARON SPRINGS   N/A     28  20  71 S6          N/A
TRENTON NEB      N/A     29  32 100 CALM        N/A
KIT CARSON CO    N/A     16  13  88 CALM        N/A
YUMA CO        FAIR      16  14  93 SW8       30.09F
$$



USA.gov is the U.S. government's official web portal to all federal, state and local government web resources and services.